Location: *
(51.4660°N, 0.3360°W)
Time: 06:39:53
(UTC+00:00)

SL-8 R/B - Pass Details

Date: 19 September 2019
Orbit: 657 x 667 km, 48.4° (Epoch: 17 October)

Event Time Altitude Azimuth Distance (km) Brightness Sun altitude
Rises 19:30:03 0° 253° (WSW) 2,982 8.0 -13.4°
Reaches altitude 10° 19:32:25 10° 250° (WSW) 2,072 7.0 -13.8°
Maximum altitude 19:37:06 58° 172° (S) 771 3.8 -14.5°
Enters shadow 19:39:50 24° 101° (E) 1,364 4.7 -14.8°
